Find Starlink 32525

NORAD ID: 62121 Int'l Des: 2024-222 Owner: SPXS Country: US Constellation: starlink operational
LEOCIRCULAR

Live-Position

3D-Globus wird geladen...

Über Starlink 32525

Beschreibung wird geladen...

Nächste Überflüge

Passes for default location (London). Set your location on the main map for personalized predictions.

Höhenverlauf

Loading altitude history...

Zweizeiliger Elementsatz

1 62121U 24222H 26126.50059457 .00012904 00000-0 47751-3 0 9999
2 62121 42.9992 169.4204 0002923 237.4650 122.5919 15.27586291 81608
Epoch: 6. Mai 2026 • Age: 7 hours

Aktueller Status

Höhe 481.5 km
Geschwindigkeit 7.63 km/s
Subsatellitenpunkt 10.75°N, 173.65°W
Startdatum 27. Nov. 2024
Alter 1.4 years
Typ internet

Technische Details

Klassifizierung Payload
Masse 730.00 kg
Trockenmasse 700.00 kg
Gesamtmasse 730.00 kg
Länge 0.30 m
Durchmesser 4.10 m
Spannweite 29.00 m
Form Box + pan
Hersteller SPXS
Bus-Typ Starlink V2M
Phasenstatus In Orbit
Besitzer/Staat SPXS/US

Most Searched